Location: Guayaquil
(2.1667°S, 79.9000°W)
Time: 04:34:41
(UTC-05:00)

ISS - Visible Passes

Search period start: 16 June 2019 00:00
Search period end: 26 June 2019 00:00
Orbit: 408 x 418 km, 51.6° (Epoch: 16 June)

Date Brightness Start Highest point End Pass type
(mag) Time Alt. Az. Time Alt. Az. Time Alt. Az.
16 Jun -2.9 19:09:36 10° NW 19:12:48 45° SW 19:15:30 14° SSE visible
18 Jun -3.4 05:54:29 10° SSW 05:57:45 62° SE 06:01:00 10° NE visible
18 Jun -0.8 19:09:38 10° WSW 19:10:22 11° SW 19:11:06 10° SW visible
19 Jun -1.8 05:06:26 15° S 05:08:16 24° SE 05:10:59 10° ENE visible
20 Jun -2.4 05:52:30 10° WSW 05:55:13 24° NW 05:57:56 10° N visible
21 Jun -3.8 05:05:27 59° W 05:05:44 63° NW 05:08:59 10° NNE visible
22 Jun -0.9 04:18:27 17° ENE 04:18:27 17° ENE 04:19:24 10° NE visible
23 Jun -1.3 05:04:15 12° NNW 05:04:15 12° NNW 05:04:49 10° NNW visible
